Content
SEND FEEDBACK

Daily
Averages
Monthly
Summary
Thailand

BANGKOK, THAILAND


Home > Asia > Thailand
Elevation: 66 feet     Latitude: 13 44N     Longitude: 100 34E

WEATHER
 
SELECT A DAY
Number of Records: 235,599;   Date Range: 7/1/96 - 8/30/14
 
SHARE

PRINT THIS DATA

[ ← Previous Day ]
WEATHER ALMANAC - JANUARY 6, 2013
[ Next Day → ]
[ °C ]   °F
Weather ElementAverageHighLow
Temperature82.1 °F91.4 °F (2:30 pm)75.2 °F (6:00 am)
Dewpoint65.2 °F68 °F (3:30 am)60.8 °F (3:00 pm)
Humidity57.4 %78 % (7:00 am)32 % (1:00 pm)
Barometer29.84 in29.95 in (9:30 am)29.77 in (3:00 pm)
Wind Speed4 mph9.2 mph (4:30 pm)
Weather ElementAverage
Visibility5.3 mi
Wind DirectionESE (113.4 °)

Weather ElementTotal
Precipitation---
Cooling Degree Days18.3 (Base 65)
Growing Degree Days33.3 (Base 50)
Averaged from 50 records on January 6, 2013
WEATHER CONDITIONS BREAKOUT
WIND DIRECTION BREAKOUT
WEATHER BY HOUR - JANUARY 6, 2013
[ °C ]   °F
Local TimeTemperatureDewpointHumidityBarometerVisibilityWind DirectionWind SpeedGust SpeedPrecipitationEventsConditions
12:30 AM78.8 °F62.6 °F57 %29.83 in5.6 miSSE (150°)3.5 mphScattered Clouds
1:00 AM78.0 °F64.0 °F52 %29.83 in5.0 miENE (60°)2.3 mphHaze
1:00 AM77.0 °F64.4 °F65 %29.80 in5.0 miENE (60°)2.3 mphScattered Clouds
1:30 AM78.8 °F64.4 °F61 %29.80 in5.0 miSouth (180°)2.3 mphScattered Clouds
2:00 AM77.0 °F64.4 °F65 %29.80 in5.0 miEast (90°)3.5 mphScattered Clouds
2:30 AM77.0 °F64.4 °F65 %29.80 in4.3 miESE (120°)2.3 mphScattered Clouds
3:00 AM77.0 °F66.2 °F69 %29.80 in4.3 miEast (90°)2.3 mphScattered Clouds
3:30 AM77.0 °F68.0 °F74 %29.80 in3.7 miCalmScattered Clouds
4:00 AM77.0 °F68.0 °F74 %29.80 in3.1 miCalmScattered Clouds
4:30 AM77.0 °F68.0 °F74 %29.80 in3.1 miCalmScattered Clouds
5:00 AM77.0 °F68.0 °F74 %29.80 in3.1 miCalmScattered Clouds
5:30 AM77.0 °F68.0 °F74 %29.83 in3.1 miCalmScattered Clouds
6:00 AM75.2 °F66.2 °F73 %29.83 in3.1 miCalmScattered Clouds
6:30 AM75.2 °F66.2 °F73 %29.83 in3.1 miCalmScattered Clouds
7:00 AM75.2 °F68.0 °F78 %29.86 in3.1 miCalmScattered Clouds
7:30 AM75.2 °F68.0 °F78 %29.86 in3.7 miCalmScattered Clouds
8:00 AM77.0 °F68.0 °F74 %29.89 in4.3 miCalmScattered Clouds
8:30 AM77.0 °F66.2 °F69 %29.92 in4.3 miEast (80°)6.9 mphScattered Clouds
9:00 AM77.0 °F66.2 °F69 %29.92 in5.0 miNorth (10°)2.3 mphScattered Clouds
9:30 AM78.8 °F66.2 °F65 %29.95 in5.0 miEast (90°)4.6 mphScattered Clouds
10:00 AM82.4 °F66.2 °F58 %29.95 in5.6 miEast (100°)3.5 mphMostly Cloudy
10:30 AM84.2 °F64.4 °F51 %29.92 in5.6 miCalmMostly Cloudy
11:00 AM84.2 °F64.4 °F51 %29.92 in5.6 miNE (40°)3.5 mphMostly Cloudy
11:30 AM86.0 °F64.4 °F48 %29.92 in5.6 miNNE (20°)2.3 mphMostly Cloudy
12:00 PM86.0 °F62.6 °F45 %29.89 in6.2 miNE (40°)6.9 mphMostly Cloudy
12:30 PM87.8 °F62.6 °F43 %29.86 in6.2 miEast (100°)5.8 mphMostly Cloudy
1:00 PM88.0 °F62.0 °F32 %29.86 in6.0 miNNE (30°)3.5 mphScattered Clouds
1:00 PM87.8 °F62.6 °F43 %29.86 in6.2 miNNE (30°)3.5 mphScattered Clouds
1:30 PM87.8 °F62.6 °F43 %29.83 in6.2 miNNE (30°)5.8 mphScattered Clouds
2:00 PM89.6 °F62.6 °F40 %29.80 in6.2 miEast (90°)6.9 mphScattered Clouds
2:30 PM91.4 °F62.6 °F38 %29.80 in6.2 miESE (120°)5.8 mphScattered Clouds
3:00 PM91.4 °F60.8 °F36 %29.77 in6.2 miNE (40°)5.8 mphScattered Clouds
3:30 PM91.4 °F60.8 °F36 %29.77 in6.2 miENE (60°)6.9 mphScattered Clouds
4:00 PM91.4 °F62.6 °F38 %29.77 in6.2 miNNW (340°)5.8 mphScattered Clouds
4:30 PM91.4 °F62.6 °F38 %29.77 in6.2 miNW (320°)9.2 mphScattered Clouds
5:00 PM89.6 °F64.4 °F43 %29.80 in6.2 miNNE (20°)4.6 mphScattered Clouds
5:30 PM87.8 °F64.4 °F46 %29.80 in6.2 miNW (320°)5.8 mphScattered Clouds
6:00 PM86.0 °F66.2 °F51 %29.80 in6.2 miNorth (350°)5.8 mphMostly Cloudy
6:30 PM84.2 °F66.2 °F55 %29.80 in6.2 miNorth (10°)5.8 mphMostly Cloudy
7:00 PM84.0 °F66.0 °F46 %29.84 in6.0 miNorth (10°)5.8 mphScattered Clouds
7:00 PM84.2 °F66.2 °F55 %29.83 in6.2 miNorth (10°)5.8 mphMostly Cloudy
7:30 PM84.2 °F66.2 °F55 %29.83 in6.2 miNNW (340°)6.9 mphMostly Cloudy
8:00 PM84.2 °F66.2 °F55 %29.83 in6.2 miNNW (330°)8.1 mphMostly Cloudy
8:30 PM82.4 °F66.2 °F58 %29.86 in6.2 miNorth (350°)5.8 mphMostly Cloudy
9:00 PM80.6 °F68.0 °F65 %29.86 in6.2 miNNW (340°)4.6 mphMostly Cloudy
9:30 PM80.6 °F68.0 °F65 %29.86 in6.2 miNW (310°)8.1 mphMostly Cloudy
10:00 PM80.6 °F66.2 °F61 %29.86 in6.2 miNNW (340°)6.9 mphMostly Cloudy
10:30 PM80.6 °F66.2 °F61 %29.86 in6.2 miNW (320°)4.6 mphMostly Cloudy
11:00 PM78.8 °F66.2 °F65 %29.86 in6.2 miNW (320°)9.2 mphMostly Cloudy
11:30 PM78.8 °F66.2 °F65 %29.86 in6.2 miNorth (10°)4.6 mphMostly Cloudy
Hourly data recorded from VTBD, located miles away from Bangkok, Thailand







STORIES FROM OUR PARTNERS